Powrót do katalogu

STARLINK-11578

AktywnyŁącznośćVLEO
NORAD 63014·PAYLOAD·🇺🇸 United States

Wystrzelony Feb 15, 2025 z Cape Canaveral Space Force Station

Loading…

Następne Przeloty (najbliższe 24 godziny)

TLE

ŚwieżeSource: CelesTrak SupGP

Epoka: Sep 14, 2026, 22:52 UTC

1 63014C 25032K   26257.95326389 -.00045727  00000+0 -35536-3 0  2571
2 63014  43.0002 134.8290 0001587 258.2991 209.3107 15.70847612    13

Śledź STARLINK-11578 w czasie rzeczywistym z AllMySat

Download on the App Store